This is the latest recevied weather packets stored in our database for station/object KC0SIQ-13. If no packets are shown the sender has not sent any weather packets the latest 10 day(s).
| Time | Temp. | Humidity | Pressure | Rain* | Wind** | Luminosity | Snow |
|---|---|---|---|---|---|---|---|
| 1777899067 | 3.89° C | 78% | 1006.9 hPa | 0 mm | - | 37 W/m² | - |
| 1777898763 | 3.89° C | 79% | 1007 hPa | 0 mm | - | 23 W/m² | - |
| 1777898461 | 3.89° C | 79% | 1006.9 hPa | 0 mm | - | 17 W/m² | - |
| 1777898159 | 3.89° C | 79% | 1006.9 hPa | 0 mm | - | 14 W/m² | - |
| 1777897855 | 3.33° C | 79% | 1006.8 hPa | 0 mm | - | 14 W/m² | - |
| 1777897551 | 3.33° C | 78% | 1006.7 hPa | 0 mm | - | 13 W/m² | - |
| 1777897247 | 3.33° C | 78% | 1006.9 hPa | 0 mm | - | 10 W/m² | - |
| 1777896943 | 3.33° C | 78% | 1006.8 hPa | 0 mm | - | 6 W/m² | - |
| 1777896641 | 3.33° C | 78% | 1006.8 hPa | 0 mm | - | 4 W/m² | - |
| 1777896337 | 3.33° C | 78% | 1006.9 hPa | 0 mm | - | 3 W/m² | - |
| 1777896036 | 3.33° C | 78% | 1006.7 hPa | 0 mm | - | 1 W/m² | - |
| 1777895733 | 3.33° C | 78% | 1006.9 hPa | 0 mm | - | 0 W/m² | - |
| 1777895430 | 3.33° C | 78% | 1006.8 hPa | 0 mm | - | 0 W/m² | - |
| 1777895128 | 3.33° C | 78% | 1006.9 hPa | 0 mm | - | 0 W/m² | - |
| 1777894825 | 3.33° C | 77% | 1006.7 hPa | 0 mm | - | 0 W/m² | - |
| 1777894522 | 3.33° C | 77% | 1006.9 hPa | 0 mm | - | 0 W/m² | - |
| 1777894220 | 3.33° C | 77% | 1006.7 hPa | 0 mm | - | 0 W/m² | - |
| 1777893916 | 3.33° C | 77% | 1007.1 hPa | 0 mm | - | 0 W/m² | - |
| 1777893612 | 3.33° C | 77% | 1007 hPa | 0 mm | - | 0 W/m² | - |
| 1777893309 | 3.33° C | 76% | 1006.9 hPa | 0 mm | - | 0 W/m² | - |
| 1777893005 | 3.33° C | 76% | 1006.7 hPa | 0 mm | - | 0 W/m² | - |
| 1777892703 | 3.33° C | 76% | 1007 hPa | 0 mm | - | 0 W/m² | - |
| 1777892398 | 3.33° C | 76% | 1007.1 hPa | 0 mm | - | 0 W/m² | - |
| 1777892094 | 3.33° C | 76% | 1007.4 hPa | 0 mm | - | 0 W/m² | - |
| 1777891791 | 3.33° C | 76% | 1007.1 hPa | 0 mm | - | 0 W/m² | - |
* Rain latest hour (hover to see other rain measurements)
** Current wind speed in m/s (hover to see current wind gust speed)